Weather in D'yakonovskoye

Russia / Vologda Oblast     59°15′33″N   38°24′38″E
temp.,
°C
wind,
m/s
gust,
m/s
humid.,
%
clouds,
%
prec.,
mm/h
press.,
hPa
HPBL,
m
14 april, wed
wed1400:00+9s3684100 0.1 102095
03:00+8sse35831 0.1 102072
06:00+8s3108899 0.0 1018163
09:00+12s5137573 0.0 1017431
12:00+15ssw7136837 0.0 1017831
15:00+17ssw61066100 0.0 10161262
18:00+13wnw5882100 1.6 1017297
21:00+7nnw4893100 2.3 1020334
15 april, thu
thu1500:00+5n5994100 0.7 1021431
03:00+5nne4108799 1.6 1022492
06:00+4nne4108989 0.6 1023490
09:00+6ne6107696 0.6 1025688
12:00+8ne6863100 0.0 10261105
15:00+8ne6859100 0.0 10261302
18:00+7ne5963100 0.0 1027916
21:00+4ne51269100 0.0 1029502
16 april, fri
fri1600:00+2ne5137244 0.0 1029401
03:00+1ene5127861 0.0 1030349
06:000ene512805 0.0 1031366
09:00+5ene610625 0.0 1032631
12:00+8ene67495 0.0 10311004
15:00+10ene67436 0.0 10311172
18:00+9ene48535 0.0 1031384
21:00+4ne38705 0.0 1032130
17 april, sat
sat1700:00+3ene39745 0.0 1033146
03:00+1ene37755 0.0 1034114
06:00+1ene37755 0.0 1034131
09:00+6ene46575 0.0 1034425
12:00+10ene45475 0.0 10341112
15:00+11ne45445 0.0 10331428
18:00+10ne35563 0.0 1032171
21:00+6ne33685 0.0 103331
18 april, sun
sun1800:00+4ene33740 0.0 103337
03:00+3ene33773 0.0 103431
06:00+3ene23805 0.0 103450
09:00+8ene34645 0.0 1034400
12:00+11ne34495 0.0 10341346
15:00+12ne34445 0.0 10331680
18:00+11ene24555 0.0 1032145
21:00+7ene226619 0.0 103317